Regional Weather Roundup
Issued by NWS Albany, NY

Home | Current Version | Previous Version | Text Only | Print | Product List | Glossary On
Versions: 1 2 3 4 5 6 7 8 9 10 11 12 13 14 15 16 17 18 19 20 21 22 23 24 25 26 27 28 29 30 31 32 33 34 35 36 37 38 39 40 41 42 43 44 45 46 47 48 49
000
ASUS41 KALY 081010
RWRALY

NEW YORK STATE HOURLY WEATHER ROUNDUP
NATIONAL WEATHER SERVICE ALBANY NY
500 AM EST MON FEB 08 2016

NOTE: "FAIR" INDICATES FEW OR NO CLOUDS BELOW 12,000 FEET WITH NO
SIGNIFICANT WEATHER AND/OR NO OBSTRUCTIONS TO VISIBILITY.

NYZ032-033-038>043-046>054-057>066-NYZ062>081-081100-
EAST


CITY           SKY/WX    TMP DP  RH WIND       PRES   REMARKS
ALBANY         CLOUDY    27  19  72 N6        29.87F WCI  20
GLENS FALLS    CLOUDY    23  17  78 NE9       29.90F WCI  13
POUGHKEEPSIE   CLOUDY    35  24  64 N7        29.78F WCI  29
NEWBURGH       CLOUDY    36  27  69 NE12G23   29.77F WCI  27
MONTGOMERY     CLOUDY    34  24  67 NE14      29.77F WCI  25
WHITE PLAINS   CLOUDY    36  26  67 NE14G23   29.73F WCI  27
ISLIP          CLOUDY    37  29  72 NE20G28   29.70S WCI  27
NEW YORK CITY  CLOUDY    39  28  65 NE17G24   29.75R WCI  30
CENTRAL PARK   CLOUDY    38  26  62 NE16G25   29.76S WCI  29
$$

NYZ005>009-017-018-044>046-055-056-081100-
CENTRAL


CITY           SKY/WX    TMP DP  RH WIND       PRES   REMARKS
FULTON         CLOUDY    34  23  64 E6        29.81F WCI  29
SYRACUSE       MOCLDY    28  22  78 E5        29.82F WCI  23
ROME           CLOUDY    27  21  78 SE7       29.85F WCI  19
ELMIRA         CLOUDY    22  20  92 CALM      29.78F
BINGHAMTON     CLOUDY    26  19  74 NE6       29.75F WCI  19
MONTICELLO     PTCLDY    30  23  74 NE9       29.75F WCI  22
$$

NYZ026>034-041>043-081100-
NORTH


CITY           SKY/WX    TMP DP  RH WIND       PRES   REMARKS
WATERTOWN      PTCLDY    22  16  78 NE10      29.85F WCI  11
FORT DRUM      NOT AVBL
MASSENA        CLOUDY    18   7  62 E16G23    29.96F WCI   3
SARANAC LAKE   CLOUDY    12   9  87 N3        29.81F
PLATTSBURGH    CLOUDY    16   7  67 NW5       29.98F WCI   9
$$

NYZ001>004-010>016-019>021-081100-
WEST


CITY           SKY/WX    TMP DP  RH WIND       PRES   REMARKS
NIAGARA FALLS  CLOUDY    39  27  62 S3        29.70F
BUFFALO        CLOUDY    39  25  57 SE6       29.70F WCI  35
DUNKIRK        CLOUDY    42  26  53 S10       29.69F
JAMESTOWN      CLOUDY    36  21  55 S7        29.68F WCI  30
WELLSVILLE     CLOUDY    33  22  63 S5        29.71F WCI  29
ROCHESTER      CLOUDY    37  26  64 SE6       29.74F WCI  32
PENN YAN       CLOUDY    31  26  82 CALM      29.77S
$$

             KEY
       WCI = WIND CHILL INDEX
       VSB = VISIBILITY
       HX  = HEAT INDEX
$$



USA.gov is the U.S. government's official web portal to all federal, state and local government web resources and services.